User: anonymous   Login
Location: Kopernik Observatory
(42.0014°N, 76.0372°W)
Time: 20:11:57
(UTC-05:00)
Language:

CENTAUR R/B - Orbit

View from above orbital plane
View from above orbital plane
View from above satellite
View from above satellite

Ground track
Ground track

The orbit data is extracted from the following two-line orbital elements,

1 26906U 01040B   17021.81100871 0.00000020  00000-0  24431-4 0    08
2 26906  63.4525 348.5380 0339000 342.4026  17.5974 13.44003102    08
Epoch (UTC): 21 January 2017 19:27:51
Eccentricity: 0.0339000
inclination: 63.4525°
perigee height: 841 km
apogee height: 1348 km
right ascension of ascending node: 348.5380°
argument of perigee: 342.4026°
revolutions per day: 13.44003102
mean anomaly at epoch: 17.5974°
orbit number at epoch: 0

The dashed part of the orbit path shows where the satellite is in the earth's shadow,  

DLR